Regional Weather Roundup
Issued by NWS Charleston, WV

Home | Current Version | Previous Version | Graphics & Text | Print | Product List | Glossary On
Versions: 1 2 3 4 5 6 7 8 9 10 11 12 13 14 15 16 17 18 19 20 21 22 23 24 25 26 27 28 29 30 31 32 33 34 35 36 37 38 39 40 41 42 43 44 45 46 47 48 49 50
000
ASUS41 KRLX 261410
RWRRLX
West Virginia Regional Weather Roundup
National Weather Service Charleston WV
1000 AM EDT SAT JUL 26 2014

Note: "fair" indicates few or no clouds below 12,000 feet with no
significant weather and/or obstructions to visibility.

WVZ003-261500-
Northern Panhandle of West Virginia

CITY           SKY/WX    TMP DP  RH WIND       PRES   REMARKS
WHEELING       SUNNY     74  60  61 S8        30.01S
$$

WVZ009-261500-
Northwest West Virginia

CITY           SKY/WX    TMP DP  RH WIND       PRES   REMARKS
PARKERSBURG    SUNNY    N/A N/A N/A SW7       30.04S
$$

WVZ006-261500-
Western West Virginia

CITY           SKY/WX    TMP DP  RH WIND       PRES   REMARKS
HUNTINGTON     SUNNY     71  63  75 SW6       30.03R
$$

WVZ015-261500-
West Central West Virginia

CITY           SKY/WX    TMP DP  RH WIND       PRES   REMARKS
CHARLESTON     MOSUNNY   74  62  66 S6        30.04S
$$

WVZ031-261500-
North Central West Virginia

CITY           SKY/WX    TMP DP  RH WIND       PRES   REMARKS
CLARKSBURG     MOSUNNY   72  61  68 VRB5      30.04S
MORGANTOWN     SUNNY     74  59  59 S7        30.04F
$$

WVZ035-042-045-261500-
South Central West Virginia

CITY           SKY/WX    TMP DP  RH WIND       PRES   REMARKS
BECKLEY        PTSUNNY   70  60  70 VRB5      30.11F
BLUEFIELD      SUNNY     72  59  63 W8        30.14S
LEWISBURG      SUNNY     73  59  63 CALM      30.10F
$$

WVZ047-261500-
Northern Mountains of West Virginia

CITY           SKY/WX    TMP DP  RH WIND       PRES   REMARKS
ELKINS         SUNNY     70  59  68 SW5       30.08F
$$

WVZ052-261500-
Eastern Panhandle of West Virginia

CITY           SKY/WX    TMP DP  RH WIND       PRES   REMARKS
MARTINSBURG    MOSUNNY   76  60  57 CALM      30.02F
PETERSBURG     MOSUNNY   73  57  57 CALM      30.04F
$$



USA.gov is the U.S. government's official web portal to all federal, state and local government web resources and services.